#timestamp,LO_Frequency,Hit,StdDev 
1598576415.8,286047000.4,N
1598576435.7,286047001.4,N
1598576455.5,286047007.2,Y
1598576475.3,286047005.9,P
1598576495.2,286047003.1,N
1598576515.0,286047005.7,P
1598576515.9,286047005.7,Y
1598576535.8,286046999.7,P
1598576555.6,286047005.6,N
1598576575.4,286047002.9,N
1598576595.3,286047004.4,N
1598576615.1,286047003.0,N
1598576635.9,286047004.0,N
1598576655.7,286047000.2,N
1598576675.5,286047001.4,N
1598576695.4,286047004.0,N
1598576715.2,286047003.6,N
1598576735.0,286047006.8,Y
1598576735.9,286047006.8,P
1598576755.8,286047004.1,N
1598576775.6,286047003.2,N
1598576795.5,286047001.9,N
1598576815.3,286046999.8,N
1598576835.1,286046997.0,N
1598576855.9,286047000.8,N
1598576875.7,286047000.1,N
1598576895.5,286047000.0,N
1598576915.4,286046999.6,N
1598576935.2,286046999.7,N
1598576955.1,286047000.5,N
1598576956.0,286047000.5,N
1598576975.8,286046995.0,N
1598576995.6,286046997.2,N
1598577015.5,286046998.9,N
1598577035.3,286046998.9,N
1598577055.2,286046999.0,N
1598577075.9,286046997.3,N
1598577095.7,286046995.8,N
1598577115.6,286046993.3,N
1598577135.4,286046994.3,N
1598577155.2,286046995.8,N
1598577175.1,286046999.4,N
1598577176.0,286046999.4,N
1598577195.8,286046998.4,N
1598577215.7,286046999.5,N
1598577235.5,286046998.2,N
1598577255.3,286047000.9,N
1598577275.2,286047005.4,N
1598577295.0,286047002.6,N
1598577295.9,286047002.6,N
1598577315.8,286047004.3,N
1598577335.6,286047001.9,N
1598577355.4,286046999.8,N
1598577375.3,286046998.1,N
1598577395.1,286047004.3,N
1598577415.9,286047004.8,N
1598577435.7,286047004.2,N
1598577455.5,286047002.2,N
1598577475.4,286047002.6,N
1598577495.2,286047004.4,N
1598577515.1,286047000.8,N
1598577516.0,286047000.8,N
1598577535.8,286047000.2,N
1598577555.6,286047000.6,N
1598577605.5,286047004.0,E
1598577615.4,286047003.8,N
1598577635.3,286046999.7,P
1598577655.1,286047002.6,N
1598577675.9,286047001.6,N
1598577695.7,286047001.8,N
1598577715.6,286047003.9,N
1598577735.4,286047007.5,Y
1598577755.2,286047001.3,P
1598577775.1,286047004.8,P
1598577776.0,286047004.8,P
1598577795.8,286047010.7,Y
1598577815.7,286047004.5,P
1598577835.5,286047005.2,P
1598577855.3,286047003.5,P
1598577875.2,286047002.2,N
1598577895.0,286047001.3,N
1598577895.9,286047001.3,N
1598577915.7,286047002.4,N
1598577935.6,286047001.1,N
1598577955.4,286047000.1,N
1598577975.3,286047002.2,N
1598577995.1,286047001.7,N
1598577996.0,286047001.7,N
1598578015.8,286047005.2,Y
1598578035.7,286047003.7,P
1598578055.5,286047002.5,P
1598578075.4,286047004.2,P
1598578095.2,286046999.7,N
1598578115.0,286046998.6,N
1598578115.9,286046998.6,N
1598578135.8,286046999.3,N
1598578155.6,286046997.6,N
1598578175.4,286046999.0,N
1598578195.3,286046999.8,N
1598578215.1,286047002.2,N
1598578235.9,286047001.4,N
1598578255.7,286047003.5,N
1598578275.5,286047003.6,N
1598578295.4,286047004.2,N
1598578315.2,286047004.3,N
1598578335.0,286047002.7,N
1598578336.0,286047002.7,N
1598578355.8,286047002.3,N
1598578375.6,286047001.1,N
1598578395.5,286046998.8,N
1598578415.3,286046999.6,N
1598578435.1,286046998.6,N
1598578455.9,286047000.1,N
1598578475.7,286046999.8,N
1598578495.6,286047000.3,N
1598578515.4,286047004.0,N
1598578535.2,286047004.5,N
1598578555.1,286047005.5,N
1598578556.0,286047005.5,N
1598578575.8,286047005.9,N
1598578595.6,286047010.9,Y
1598578615.5,286047010.0,P
1598578635.3,286047010.4,N
1598578655.2,286047010.5,N
1598578675.9,286047012.3,Y
1598578695.7,286047000.9,P
1598578715.6,286047003.1,N
1598578735.4,286047004.9,N
1598578755.3,286047011.9,Y
1598578775.1,286047010.4,P
1598578776.0,286047010.4,P
1598578795.8,286047011.8,P
1598578815.7,286047012.7,Y
1598578835.5,286047005.1,P
1598578855.4,286047002.0,N
1598578875.2,286047003.3,N
1598578895.0,286047006.2,N
1598578895.9,286047006.2,N
1598578915.8,286047003.2,N
1598578935.6,286047007.6,Y
1598578955.5,286047000.6,P
1598578975.3,286047001.2,N
1598578995.1,286046998.9,N
1598579015.9,286047002.5,N
1598579035.7,286047005.8,N
1598579055.5,286047010.7,Y
1598579075.4,286047006.1,P
1598579095.2,286047004.5,N
1598579115.1,286047002.0,N
1598579116.0,286047002.0,N
1598579135.8,286047005.1,Y
1598579155.6,286047007.6,P
1598579175.5,286047006.1,N
1598579195.3,286047009.0,P
1598579215.2,286047010.0,Y
1598579235.9,286047006.3,P
1598579255.7,286047007.8,P
1598579275.6,286047007.5,P
1598579295.4,286047005.8,Y
1598579315.3,286046996.6,P
1598579335.1,286046999.6,N
1598579336.0,286046999.6,N
1598579355.8,286046997.7,N
1598579375.7,286046995.3,N
1598579395.5,286046997.6,N
1598579415.3,286046994.1,N
1598579435.2,286046997.2,N
1598579455.0,286046995.8,N
1598579455.9,286046995.8,N
1598579475.8,286046997.8,N
1598579495.6,286046998.5,N
1598579515.4,286046994.4,N
1598579535.3,286046991.4,N
1598579555.1,286046989.8,Y
1598579575.9,286046992.6,P
1598579595.7,286046992.0,P
1598579615.5,286046994.6,N
1598579635.4,286046994.5,N
1598579655.2,286046994.4,Y
1598579675.1,286047000.2,P
1598579676.0,286047000.2,N
1598579695.8,286046998.1,N
1598579715.6,286047002.6,N
1598579735.5,286046999.8,N
1598579755.3,286047000.4,N
1598579775.1,286046997.9,N
1598579795.9,286046997.6,N
1598579815.7,286046998.6,N
1598579835.6,286046998.3,N
1598579855.4,286046998.1,N
1598579875.2,286047000.9,N
1598579895.1,286047001.1,N
1598579896.0,286047001.1,N
1598579915.8,286047001.3,N
1598579935.7,286047005.5,N
1598579955.5,286047000.1,N
1598579975.3,286046997.5,N
1598579995.2,286046996.9,N
